Location: Haliburton Scout Reserve
(45.0900°N, 78.3200°W)
Time: 13:58:07
(UTC-04:00)

ESTCUBE 1 - Visible Passes

Search period start: 17 May 2022 00:00
Search period end: 27 May 2022 00:00
Orbit: 645 x 659 km, 97.9° (Epoch: 17 May)

Date Brightness Start Highest point End Pass type
(mag) Time Alt. Az. Time Alt. Az. Time Alt. Az.
17 May ? 00:21:04 23° WSW 00:21:38 23° W 00:25:16 10° NW visible
17 May ? 23:10:35 47° SE 23:11:47 70° ENE 23:16:17 10° N visible
18 May ? 00:48:24 12° W 00:49:00 13° W 00:51:01 10° WNW visible
18 May ? 22:00:06 11° E 22:02:37 16° ENE 22:05:20 10° NNE visible
18 May ? 23:37:55 49° SSW 23:38:53 62° W 23:43:22 10° NNW visible
19 May ? 22:27:27 20° ESE 22:29:27 27° ENE 22:33:14 10° N visible
20 May ? 00:05:16 30° WSW 00:06:05 33° W 00:10:10 10° NNW visible
20 May ? 22:54:47 33° SE 22:56:23 49° ENE 23:00:43 10° N visible
21 May ? 00:32:37 17° WSW 00:33:23 18° W 00:36:30 10° NW visible
21 May ? 21:45:48 10° E 21:47:21 12° ENE 21:48:54 10° NE visible
21 May ? 23:22:08 47° SSE 23:23:25 89° W 23:27:56 10° NNW visible
22 May ? 22:11:39 13° ESE 22:14:06 20° ENE 22:17:23 10° NNE visible
22 May ? 23:49:28 39° SW 23:50:33 47° W 23:54:54 10° NNW visible
23 May ? 22:38:59 23° ESE 22:40:58 35° ENE 22:45:04 10° N visible
24 May ? 00:16:49 23° WSW 00:17:47 25° W 00:21:31 10° NW visible
24 May ? 23:06:20 37° SE 23:07:57 65° ENE 23:12:25 10° N visible
25 May ? 00:44:09 13° WSW 00:45:08 14° W 00:47:26 10° WNW visible
25 May ? 21:56:18 10° E 21:58:48 15° ENE 22:01:18 10° NNE visible
25 May ? 23:33:40 43° SSW 23:35:01 68° WSW 23:39:31 10° NNW visible
26 May ? 22:23:11 16° ESE 22:25:36 25° ENE 22:29:17 10° N visible
